Athens, OH

7:09 AM EDT on August 20, 2017 (GMT -0400)
Ohio University

Weather History for KUNI - March, 2013

Change the Weather History Date:

Monday, March 25, 2013

  Actual Average (KPKB) Record (KPKB)
Temperature  
Mean Temperature 34 °F -  
Max Temperature 35 °F 56 °F 89 °F (1929)
Min Temperature 32 °F 34 °F 13 °F (1974)
Degree Days  
Heating Degree Days 32    
Moisture  
Dew Point 31 °F    
Average Humidity 92    
Maximum Humidity 99    
Minimum Humidity 84    
Precipitation  
Precipitation 0.00 in - - ()
Sea Level Pressure  
Sea Level Pressure 29.56 in    
Wind  
Wind Speed 6 mph (WSW)    
Max Wind Speed 16 mph    
Max Gust Speed 23 mph    
Visibility 7 miles    
Events Rain , Snow    
Averages and records for this station are not official NWS values.
T = Trace of Precipitation, MM = Missing Value Source: NWS Daily Summary

Daily Weather History Graph

Daily Weather History Graph

Search for Another Location

Airport or City:

Trip Planner

Search our weather history database for the weather conditions in past years. The results will help you decide how hot, cold, wet, or windy it might be!

Date:

Astronomy

Mar. 25, 2013 Rise Set
Actual Time 7:24 AM EDT 7:46 PM EDT
Civil Twilight 6:57 AM EDT 8:12 PM EDT
Nautical Twilight 6:25 AM EDT 8:44 PM EDT
Astronomical Twilight 5:53 AM EDT 9:16 PM EDT
Moon 6:16 PM EDT (3/25) 6:06 AM EDT (3/25)
Length of Visible Light 13h 15m
Length of Day
12h 22m
Waxing Gibbous, 96% of the Moon is Illuminated
Mar 25
Waxing Gibbous
Mar 27
Full
Apr 3
Last Quarter
Apr 10
New
Apr 18
First Quarter

Hourly Weather History & Observations

Time (EDT) Temp. Windchill Dew Point Humidity Pressure Visibility Wind Dir Wind Speed Gust Speed Precip Events Conditions
12:15 AM 32.4 °F 29.1 °F 32.0 °F 99% 29.40 in 5.0 mi ENE 3.5 mph - N/A Rain Rain
12:35 AM 32.2 °F - 31.8 °F 99% 29.41 in 4.0 mi Calm Calm - N/A Rain Light Rain
12:55 AM 32.4 °F - 32.0 °F 99% 29.41 in 4.0 mi Calm Calm - N/A Rain Light Rain
1:15 AM 32.2 °F - 31.8 °F 99% 29.41 in 4.0 mi Calm Calm - N/A   Overcast
1:35 AM 32.2 °F - 31.8 °F 99% 29.40 in 7.0 mi Calm Calm - N/A   Overcast
1:55 AM 32.4 °F - 32.0 °F 99% 29.41 in 7.0 mi Calm Calm - N/A   Overcast
2:15 AM 32.9 °F - 32.0 °F 96% 29.41 in 7.0 mi Calm Calm - N/A   Overcast
2:35 AM 32.9 °F - 32.0 °F 96% 29.42 in 7.0 mi Calm Calm - N/A   Overcast
2:55 AM 33.1 °F - 32.2 °F 96% 29.42 in 7.0 mi Calm Calm - N/A   Overcast
3:15 AM 33.1 °F - 32.2 °F 96% 29.42 in 5.0 mi Calm Calm - N/A   Overcast
3:35 AM 33.4 °F - 32.5 °F 96% 29.41 in 7.0 mi Calm Calm - N/A   Light Drizzle
3:55 AM 34.2 °F 30.0 °F 33.3 °F 97% 29.42 in 7.0 mi SW 4.6 mph - N/A   Light Drizzle
4:15 AM 34.9 °F 27.1 °F 34.0 °F 97% 29.42 in 10.0 mi SW 10.4 mph - N/A Rain Rain
4:35 AM 35.1 °F 27.9 °F 34.2 °F 97% 29.42 in 10.0 mi WSW 9.2 mph - N/A Rain Rain
4:55 AM 35.1 °F 29.3 °F 34.0 °F 96% 29.43 in 7.0 mi SW 6.9 mph - N/A Rain Light Rain
5:15 AM 34.9 °F 26.6 °F 33.8 °F 96% 29.43 in 10.0 mi SW 11.5 mph 19.6 mph N/A   Overcast
5:35 AM 34.7 °F 28.1 °F 33.4 °F 95% 29.44 in 10.0 mi SW 8.1 mph - N/A Rain Rain
5:55 AM 34.2 °F 26.2 °F 32.7 °F 94% 29.44 in 10.0 mi SW 10.4 mph 18.4 mph N/A Rain Light Rain
6:15 AM 33.8 °F 27.0 °F 32.0 °F 93% 29.45 in 10.0 mi SW 8.1 mph 16.1 mph N/A Rain Light Rain
6:35 AM 33.4 °F 25.4 °F 31.1 °F 91% 29.45 in 10.0 mi SW 10.4 mph 17.3 mph N/A   Overcast
6:55 AM 33.3 °F 25.1 °F 30.4 °F 89% 29.45 in 10.0 mi SW 10.4 mph 19.6 mph N/A   Overcast
7:15 AM 32.9 °F 28.5 °F 30.7 °F 92% 29.46 in 7.0 mi SW 4.6 mph - N/A Snow Light Snow
7:35 AM 32.5 °F 26.2 °F 31.1 °F 94% 29.46 in 3.0 mi SW 6.9 mph - N/A Snow Light Snow
8:15 AM 32.4 °F 26.0 °F 30.7 °F 94% 29.47 in 5.0 mi SSW 6.9 mph - N/A Snow Light Snow
8:35 AM 32.4 °F 26.9 °F 30.9 °F 94% 29.47 in 3.0 mi SSW 5.8 mph - N/A Snow Light Snow
8:55 AM 32.4 °F 26.0 °F 31.1 °F 95% 29.48 in 3.0 mi SSW 6.9 mph - N/A Snow Light Snow
9:15 AM 32.4 °F 26.9 °F 31.1 °F 95% 29.48 in 2.5 mi SSW 5.8 mph - N/A Snow Light Snow
9:35 AM 32.5 °F 26.2 °F 31.3 °F 95% 29.48 in 3.0 mi SSW 6.9 mph - N/A Snow Light Snow
9:55 AM 32.9 °F 27.5 °F 31.6 °F 95% 29.48 in 3.0 mi SSW 5.8 mph - N/A Snow Light Snow
10:15 AM 32.9 °F 26.7 °F 31.5 °F 94% 29.49 in 2.0 mi SSW 6.9 mph - N/A Snow Light Snow
10:35 AM 32.9 °F 25.9 °F 31.5 °F 94% 29.49 in 2.5 mi SW 8.1 mph - N/A Snow Light Snow
10:55 AM 33.1 °F 26.1 °F 31.5 °F 94% 29.50 in 4.0 mi SW 8.1 mph - N/A Snow Light Snow
11:15 AM 33.1 °F 26.1 °F 30.7 °F 91% 29.51 in 5.0 mi SW 8.1 mph - N/A Snow Light Snow
11:35 AM 33.1 °F 23.4 °F 30.6 °F 90% 29.51 in 7.0 mi WSW 13.8 mph 18.4 mph N/A   Overcast
11:55 AM 32.9 °F 23.7 °F 30.6 °F 91% 29.52 in 2.5 mi WSW 12.7 mph - N/A Snow Light Snow
12:15 PM 32.9 °F 23.7 °F 30.9 °F 92% 29.53 in 2.0 mi WSW 12.7 mph - N/A Snow Light Snow
12:35 PM 33.1 °F 24.9 °F 31.1 °F 92% 29.54 in 4.0 mi WSW 10.4 mph 16.1 mph N/A Snow Light Snow
12:55 PM 33.6 °F 23.3 °F 30.9 °F 90% 29.54 in 2.0 mi West 16.1 mph 23.0 mph N/A Snow Light Snow
1:15 PM 33.1 °F 23.0 °F 31.1 °F 92% 29.55 in 2.0 mi WSW 15.0 mph - N/A Snow Light Snow
1:35 PM 33.6 °F 25.6 °F 31.3 °F 91% 29.56 in 3.0 mi WSW 10.4 mph - N/A Snow Light Snow
1:55 PM 33.3 °F 24.1 °F 31.1 °F 92% 29.57 in 4.0 mi WSW 12.7 mph - N/A Snow Light Snow
2:15 PM 33.3 °F 24.1 °F 31.1 °F 92% 29.57 in 5.0 mi WSW 12.7 mph 16.1 mph N/A   Overcast
2:35 PM 33.8 °F 25.3 °F 30.6 °F 88% 29.57 in 10.0 mi WSW 11.5 mph 19.6 mph N/A   Overcast
2:55 PM 33.8 °F 25.3 °F 30.6 °F 88% 29.58 in 10.0 mi WSW 11.5 mph 20.7 mph N/A Snow Light Snow
3:15 PM 33.8 °F 25.8 °F 30.0 °F 86% 29.58 in 10.0 mi WSW 10.4 mph 18.4 mph N/A Snow Light Snow
3:35 PM 33.8 °F 24.3 °F 29.5 °F 84% 29.59 in 10.0 mi West 13.8 mph 18.4 mph N/A   Overcast
3:55 PM 34.0 °F 24.6 °F 29.8 °F 85% 29.60 in 10.0 mi WSW 13.8 mph 18.4 mph N/A   Overcast
4:15 PM 33.8 °F 24.8 °F 29.8 °F 85% 29.61 in 10.0 mi West 12.7 mph 20.7 mph N/A Snow Light Snow
4:35 PM 33.8 °F 25.3 °F 30.0 °F 86% 29.62 in 10.0 mi West 11.5 mph - N/A Snow Light Snow
4:55 PM 33.8 °F 24.8 °F 30.0 °F 86% 29.63 in 7.0 mi WSW 12.7 mph 18.4 mph N/A Snow Light Snow
5:15 PM 33.4 °F 25.4 °F 30.2 °F 88% 29.64 in 10.0 mi West 10.4 mph 19.6 mph N/A Snow Light Snow
5:35 PM 33.8 °F 26.4 °F 30.4 °F 87% 29.64 in 10.0 mi West 9.2 mph - N/A Snow Light Snow
5:55 PM 33.8 °F 25.8 °F 30.4 °F 87% 29.66 in 10.0 mi WSW 10.4 mph - N/A   Overcast
6:15 PM 33.8 °F 27.0 °F 30.9 °F 89% 29.67 in 10.0 mi West 8.1 mph 16.1 mph N/A   Overcast
6:35 PM 33.6 °F 26.8 °F 31.1 °F 90% 29.68 in 7.0 mi West 8.1 mph - N/A Snow Light Snow
6:55 PM 33.6 °F 26.2 °F 31.3 °F 91% 29.69 in 7.0 mi West 9.2 mph - N/A Snow Light Snow
7:15 PM 33.6 °F 26.2 °F 31.5 °F 92% 29.70 in 7.0 mi West 9.2 mph - N/A Snow Light Snow
7:35 PM 33.4 °F 25.4 °F 31.5 °F 92% 29.72 in 7.0 mi West 10.4 mph - N/A Snow Light Snow
7:55 PM 33.3 °F 25.7 °F 31.5 °F 93% 29.73 in 7.0 mi West 9.2 mph - N/A Snow Light Snow
8:15 PM 33.3 °F 25.1 °F 31.1 °F 92% 29.74 in 7.0 mi West 10.4 mph - N/A Snow Light Snow
8:35 PM 33.1 °F 26.1 °F 31.1 °F 92% 29.75 in 7.0 mi West 8.1 mph - N/A Snow Light Snow
8:55 PM 33.1 °F 24.4 °F 30.9 °F 92% 29.76 in 7.0 mi West 11.5 mph - N/A Snow Light Snow
9:15 PM 33.1 °F 24.9 °F 30.6 °F 90% 29.77 in 10.0 mi West 10.4 mph - N/A Snow Light Snow
9:35 PM 33.3 °F 25.1 °F 30.2 °F 89% 29.79 in 10.0 mi West 10.4 mph - N/A   Overcast
9:55 PM 33.1 °F 23.4 °F 30.2 °F 89% 29.79 in 10.0 mi West 13.8 mph - N/A   Overcast
10:15 PM 33.1 °F 24.4 °F 30.2 °F 89% 29.80 in 7.0 mi West 11.5 mph - N/A   Overcast
10:35 PM 32.5 °F 23.2 °F 30.4 °F 92% 29.81 in 4.0 mi WNW 12.7 mph - N/A Snow Light Snow
10:55 PM 32.4 °F 24.6 °F 30.6 °F 93% 29.81 in 5.0 mi WNW 9.2 mph - N/A Snow Light Snow
11:15 PM 32.4 °F 24.0 °F 30.7 °F 94% 29.82 in 4.0 mi West 10.4 mph - N/A Snow Light Snow
11:35 PM 32.5 °F 25.5 °F 30.7 °F 93% 29.84 in 7.0 mi West 8.1 mph - N/A Snow Light Snow
11:55 PM 32.7 °F 24.5 °F 30.7 °F 92% 29.84 in 7.0 mi West 10.4 mph - N/A Snow Light Snow